Voltar ao catálogo

CZ-6A DEB

AtivoSSO
NORAD 54518·DEBRIS·🇨🇳 China

Lançado Nov 11, 2022 de Taiyuan Satellite Launch Center

Loading…

Próximas Passagens (próximas 24 horas)

TLE

AtualizadoSource: Space-Track

Época: Sep 14, 2026, 14:00 UTC

1 54518U 22151JW  26257.58352783  .00000475  00000-0  18483-3 0  9990
2 54518  98.7663 298.0232 0125284 213.7774 145.5381 14.30255647199871

Acompanhe CZ-6A DEB em tempo real com AllMySat

Download on the App Store